TimeMDT,TemperatureF,Dew PointF,Humidity,Sea Level PressureIn,VisibilityMPH,Wind Direction,Wind SpeedMPH,Gust SpeedMPH,PrecipitationIn,Events,Conditions,WindDirDegrees,DateUTC
12:55 AM,64.4,35.6,34,29.87,10.0,South,12.7,-,N/A,,Clear,190,2012-10-02 06:55:00
1:55 AM,62.1,37.0,39,29.82,10.0,SSW,10.4,-,N/A,,Partly Cloudy,200,2012-10-02 07:55:00
2:55 AM,64.0,37.9,38,29.81,10.0,SSW,10.4,-,N/A,,Partly Cloudy,200,2012-10-02 08:55:00
3:55 AM,59.0,39.0,48,29.80,10.0,SSW,10.4,-,N/A,,Mostly Cloudy,210,2012-10-02 09:55:00
4:55 AM,61.0,39.9,46,29.79,10.0,South,10.4,-,N/A,,Clear,190,2012-10-02 10:55:00
5:55 AM,57.0,42.1,57,29.81,10.0,Calm,Calm,-,N/A,,Mostly Cloudy,0,2012-10-02 11:55:00
6:55 AM,51.1,39.0,63,29.83,10.0,WNW,3.5,-,N/A,,Overcast,300,2012-10-02 12:55:00
7:55 AM,45.0,37.9,76,29.85,10.0,Calm,Calm,-,N/A,,Partly Cloudy,0,2012-10-02 13:55:00
8:55 AM,45.0,37.9,76,29.86,10.0,Calm,Calm,-,N/A,,Scattered Clouds,0,2012-10-02 14:55:00
9:55 AM,63.0,42.1,46,29.83,10.0,SSW,4.6,-,N/A,,Partly Cloudy,200,2012-10-02 15:55:00
10:55 AM,66.0,41.0,40,29.81,10.0,WSW,10.4,-,N/A,,Partly Cloudy,240,2012-10-02 16:55:00
11:55 AM,68.0,37.9,33,29.80,10.0,SW,12.7,-,N/A,,Clear,230,2012-10-02 17:55:00
12:55 PM,71.1,33.1,25,29.77,10.0,SW,13.8,-,N/A,,Partly Cloudy,230,2012-10-02 18:55:00
1:55 PM,71.1,30.0,22,29.76,10.0,WSW,12.7,25.3,N/A,,Clear,250,2012-10-02 19:55:00
2:55 PM,71.1,24.1,17,29.75,10.0,West,15.0,25.3,N/A,,Clear,260,2012-10-02 20:55:00
4:55 PM,66.0,28.9,25,29.77,10.0,WNW,9.2,-,N/A,,Mostly Cloudy,300,2012-10-02 22:55:00
5:55 PM,62.6,30.2,30,29.83,10.0,NNW,18.4,26.5,N/A,,Overcast,340,2012-10-02 23:55:00
6:55 PM,55.4,35.6,47,29.85,10.0,NNW,15.0,31.1,N/A,,Overcast,330,2012-10-03 00:55:00
7:55 PM,52.0,37.0,57,29.93,10.0,North,9.2,-,0.00,,Overcast,360,2012-10-03 01:55:00
8:55 PM,48.0,39.0,71,29.97,10.0,NNE,9.2,-,0.00,,Overcast,20,2012-10-03 02:55:00
9:46 PM,42.8,37.4,81,30.00,6.0,North,17.3,21.9,0.05,Rain,Rain,350,2012-10-03 03:46:00
9:55 PM,42.1,39.0,89,29.99,5.0,NNW,12.7,23.0,0.07,Rain,Rain,340,2012-10-03 03:55:00
10:55 PM,41.0,37.0,86,30.01,10.0,North,18.4,25.3,0.06,Rain,Light Rain,360,2012-10-03 04:55:00
11:42 PM,39.2,35.6,87,30.02,10.0,North,19.6,29.9,0.03,Rain,Light Rain,360,2012-10-03 05:42:00
11:55 PM,39.0,36.0,89,30.04,10.0,NNE,21.9,28.8,0.03,Rain,Light Rain,30,2012-10-03 05:55:00